Location: Unspecified
(0.0000°N, 0.0000°E)
Time: 16:12:08
(UTC+00:00)

CZ-4 DEB - Pass Details

Date: 24 June 2024
Orbit: 785 x 976 km, 99.1° (Epoch: 18 July)

Event Time Altitude Azimuth Distance (km) Brightness Sun altitude
Exits shadow 19:11:56 22° 101° (E) 1,969 ? -15.9°
Maximum altitude 19:13:39 25° 76° (ENE) 1,844 ? -16.2°
Drops below altitude 10° 19:18:31 10° 23° (NNE) 2,715 ? -17.4°
Sets 19:21:24 0° 11° (N) 3,659 ? -18.0°
